COSMOS 1275 DEB, 12695

Orbit data source: Space-Track

COSMOS 1275 DEB, 12695 is space debris in LEO originally from a launch on Thu, 04 Jun 1981 UTC launched from the Plesetsk Missile And Space Complex (PKMTR). Debris objects in space refer to the collection of defunct objects orbiting the Earth. Examples of debris include non-operational satellites, rocket bodies, and fragments generated from explosions, collisions, or faulty payload assembly.

Loading next visibility...
Identifier
12695, 1981-053AP
Orbit
LEO
Country
Flag of CISCIS
Related business
Manufacturer
Unknown
Mission
Spacecraft
Bus & Motor
Unknown
Mass
Unknown
Launch date (UTC)
1981-06-04 (44 years ago)
Launch vehicle
Unknown
Launch site
Plesetsk Missile And Space Complex (PKMTR)
Object type
Payload
Rocket body
Debris
Shape & HBR
Unknown
Radar Cross Section
Small (<0.1 m²)

Expand to show TLE details & history
Last TLE update: 10 hours ago

TLE from 10 hours ago
0 COSMOS 1275 DEB
1 12695U 81053AP  25246.11449105  .00001571  00000-0  15916-2 0  9992
2 12695  83.0092 112.1946 0106605 113.1825  43.9893 13.73955969189641
Epoch: 2025-09-03T02:44Z
TLE epoch observation values (Epoch: 2025-09-03T02:44:52.026Z)
Latitude
21.81246°
Longitude
-94.31644°
Altitude
931.982 km
Speed
7.416 km/s
True Right ascension
19h 17m 35s
True Declination
21° 41' 49"
Sunlit
Object was in full shadow at epoch
Visualization orbit readout
Latitude
Unknown
Longitude
Unknown
Altitude
Unknown
Speed
Unknown
Apparent Right ascension
Unknown
Apparent Declination
Unknown
Sunlit
N/A
Visualization observer readout
Local Sidereal Time
04:07:24
Azimuth
Unknown
Elevation
Unknown
Doppler factor
Unknown
Orbital elements
Apogee altitude
1,061.019 km
Perigee altitude
904.081 km
Semi-major axis
7,360.687 km
Eccentricity
0.01066
Inclination
83.0092°
RAAN
112.1946°
Arg. of periapsis
113.1825°
True anomaly
44.84591°
Mean anomaly
43.9893°
Eccentric anomaly
44.41678°
Mean motion
3.43689 °/min
Orbital period
104.75 mins
BSTAR
0.0015916
Loading maneuver chart data...
Computing Atmospheric mass density...
Loading historical data...
Loading historical data...
Loading historical data...
Loading historical data...
Loading historical data...
Loading historical data...
Loading historical data...

Documentation

Showing up to 5 results
|